Regional Weather Roundup
Issued by NWS Wilmington, NC

Home | Current Version | Previous Version | Text Only | Print | Product List | Glossary On
Versions: 1 2 3 4 5 6 7 8 9 10 11 12 13 14 15 16 17 18 19 20 21 22 23 24 25 26 27 28
000
ASUS42 KILM 060213
RWRILM
RWRILM
REGIONAL HOURLY WEATHER ROUNDUP
NATIONAL WEATHER SERVICE WILMINGTON NC
1000 PM EDT THU MAY 05 2016

NOTE: "FAIR" INDICATES FEW OR NO CLOUDS BELOW 12,000 FEET WITH NO
SIGNIFICANT WEATHER AND/OR OBSTRUCTIONS TO VISIBILITY.

...............WFO WILMINGTON COUNTY WARNING AREA...............

......COASTAL NC AND SC COUNTIES......

CITY           SKY/WX    TMP DP  RH WIND       PRES   REMARKS
WILMINGTON     CLEAR     55  48  77 W6        29.66R
N MYRTLE BEACH CLEAR     53  49  86 W5        29.69R
MYRTLE BEACH   MOCLDY    54  43  66 NW6       29.72R

......INLAND NC AND SC COUNTIES.......

CITY           SKY/WX    TMP DP  RH WIND       PRES   REMARKS
LUMBERTON      PTCLDY    53  45  74 NW9       29.69R
ELIZABETHTOWN  CLEAR     54  46  75 W8        29.68R
WHITEVILLE     NOT AVBL
FLORENCE       CLOUDY    53  48  83 N7        29.72R
DARLINGTON     CLEAR     50  45  83 NW10      29.74R
KINGSTREE      RAIN      54  48  82 CALM      29.73R
HARTSVILLE     MOCLDY    50  41  71 CALM      29.74R
BENNETTSVILLE  FAIR      54  45  71 NW6       29.72R
CONWAY         FAIR      52  46  82 CALM      29.72R
GEORGETOWN     MOCLDY    50  46  87 SW6       29.72S
MARION         FAIR      50  46  87 NW6       29.71S

....................REST OF NORTH CAROLINA......................

.........EASTERN NC.........

CITY           SKY/WX    TMP DP  RH WIND       PRES   REMARKS
CAPE HATTERAS  CLOUDY    54  50  86 N9G21     29.60R
JACKSONVILLE   LGT RAIN  55  53  93 VRB3      29.65R
MOREHEAD CITY  LGT RAIN  55  52  89 N8        29.64R
KENANSVILLE    CLOUDY    53  49  87 CALM      29.66R
NEW BERN       LGT RAIN  54  52  93 E3        29.65R
ELIZABETH CITY RAIN      51  49  92 N13       29.63F FOG

.........CENTRAL NC.........

CITY           SKY/WX    TMP DP  RH WIND       PRES   REMARKS
RALEIGH DURHAM LGT RAIN  49  47  93 W5        29.67R
ROCKY MOUNT    LGT RAIN  52  52 100 NE7       29.64R FOG
ROANOKE RAPIDS NOT AVBL
FAYETTEVILLE   CLOUDY    53  44  71 W10       29.68R
HOFFMAN        MOCLDY    51  43  76 NW9       29.70R

.........WESTERN NC.........

CITY           SKY/WX    TMP DP  RH WIND       PRES   REMARKS
CHARLOTTE      LGT RAIN  49  45  86 NW7       29.75R
GREENSBORO     RAIN      46  45  96 NW9       29.69R FOG
HICKORY        NOT AVBL
BOONE          NOT AVBL
ASHEVILLE      NOT AVBL

.....................REST OF SOUTH CAROLINA.....................

.........EASTERN SC.........

CITY           SKY/WX    TMP DP  RH WIND       PRES   REMARKS
CHARLESTON     PTCLDY    59  41  51 NW9       29.73R
BEAUFORT MCAS  CLEAR     61  40  45 W12G21    29.76R
HILTON HEAD    CLOUDY    63  41  45 NW7G21    29.78R

.........CENTRAL SC.........

CITY           SKY/WX    TMP DP  RH WIND       PRES   REMARKS
COLUMBIA       PTCLDY    59  44  57 NW9       29.74R
ORANGEBURG     CLEAR     54  44  69 W7        29.74R
SUMTER SHAW    LGT RAIN  54  46  76 N15G22    29.72R

.........WESTERN SC.........

CITY           SKY/WX    TMP DP  RH WIND       PRES   REMARKS
GREENVILLE     NOT AVBL
ROCK HILL      LGT RAIN  49  46  90 N5        29.76R
ANDERSON       CLEAR     55  39  54 NW12      29.78R
CLEMSON        NOT AVBL
GREENWOOD      CLEAR     52  40  63 N6        29.78R


...................COASTAL AND OFFSHORE REPORTS..................

................LOCAL PIERS AND NC RESERVE................


STATION/POSITION TIME  SKY/WX   TEMP    WIND        PRES    VSBY
                                AIR SEA DIR/SP/G
                 (UTC)          (F)     (DEG/KT/KT) (MB)    (MI)
JOHNY MRCER PIER 0100            59 70              1002.7R
NC RESRV MASNBRO NOT AVBL
OCEAN CREST PIER NOT AVBL
SPRINGMAID  PIER 0100            57 70              1004.6R


................COASTAL AND OFFSHORE BUOYS................


STATION/POSITION TIME  SKY/WX   TEMP    WIND        PRES    VSBY
                                AIR SEA DIR/SP/G
                 (UTC)          (F)     (DEG/KT/KT) (MB)    (MI)
DIMNDSHOAL 41025 0150            56 76  360/ 19/ 23 1001.6R
WVE H/P(F/S)=  5/ 7

CAPE LOOKOUT     0100            57     350/ 11/ 12 1002.6R
ONSLOW BAY 41036 NOT AVBL
ONSLOW BAY 41064 NOT AVBL
ONSLOW BAY 41159 0125               73                N/A
WVE H/P(F/S)=  5/ 5

5SE WRITBC 41038 NOT AVBL
MASNBO INL 41110 0106               69                N/A
WVE H/P(F/S)=  2/ 7

WILM HARBR 41108 0126               70                N/A
WVE H/P(F/S)=  4/ 6

27SE WRITB 41037 0108            62 72  320/ 12/ 19 1003.2R
FRYING PAN 41013 0100            64 72  300/ 21/ 25 1003.8R
SUNST NRSH 41024 0108            59 70  320/ 12/ 16 1003.9R
CAPRS NRSH 41029 0108            64 70  300/ 17/ 23 1005.5R
EDISTO     41004 0150            67 73  300/ 21/ 23 1005.5R
WVE H/P(F/S)=  6/ 6 SWL H/P/D(F/S/D)=  2/12



..........OFFSHORE BUOYS BEYOND 100 NM OFFSHORE...........
.....IN A TRIANGLE---HAT TO BERMUDA TO BAHAMAS TO HAT.....


STATION/POSITION TIME  SKY/WX   TEMP    WIND        PRES    VSBY
                                AIR SEA DIR/SP/G
                 (UTC)          (F)     (DEG/KT/KT) (MB)    (MI)
150E HAT   41001 NOT AVBL
W BERMUDA  41048 0150            71 70  210/ 10/ 14 1007.1R
WVE H/P(F/S)= 10/ 9 SWL H/P/D(F/S/D)= 10/160/ 9

ATLANTIC S 41049 0150            77 76  140/ 17/ 21 1017.5F
WVE H/P(F/S)=  6/ 7 SWL H/P/D(F/S/D)=  2/ 50/11

E BAHAMAS  41046 0150            80 80  160/ 17/ 21 1012.5S
WVE H/P(F/S)=  6/ 7

NE BAHAMAS 41047 0150            77 77  280/ 10/ 12 1009.0R
WVE H/P(F/S)=  6/ 7 SWL H/P/D(F/S/D)=  7/200/ 7

120E CANVRL41010 0120            74 78  250/  8/ 12 1007.5R

END




USA.gov is the U.S. government's official web portal to all federal, state and local government web resources and services.